Overview Statistics Trail Chart Weather Telemetry Raw packets
 

This is the latest recevied weather packets stored in our database for station/object KG5APU. If no packets are shown the sender has not sent any weather packets the latest 10 day(s).

<< 18 19 20 21 22 23 24 >>
Time Temp. Humidity Pressure Rain* Wind** Luminosity Snow
1788353504 27.22° C 75% 1016.8 hPa 0 mm - 48 W/m² -
1788352900 27.22° C 76% 1016.5 hPa 0 mm - 35 W/m² -
1788352296 26.11° C 78% 1016.5 hPa 0 mm - 24 W/m² -
1788351692 26.11° C 80% 1016.3 hPa 0 mm - 16 W/m² -
1788351087 25.56° C 82% 1016.4 hPa 0 mm - 9 W/m² -
1788350486 25.56° C 81% 1016.1 hPa 0 mm - 4 W/m² -
1788349882 25.56° C 80% 1016.4 hPa 0 mm - 1 W/m² -
1788349277 26.11° C 80% 1016.5 hPa 0 mm - 0 W/m² -
1788348674 26.11° C 80% 1016.5 hPa 0 mm - 0 W/m² -
1788348072 26.11° C 80% 1016.4 hPa 0 mm - 0 W/m² -
1788347469 26.11° C 80% 1016.5 hPa 0 mm - 0 W/m² -
1788346867 26.11° C 79% 1016.5 hPa 0 mm - 0 W/m² -
1788346266 26.11° C 80% 1016.4 hPa 0 mm - 0 W/m² -
1788345663 26.11° C 81% 1016.4 hPa 0 mm - 0 W/m² -
1788345058 26.11° C 82% 1016.4 hPa 0 mm - 0 W/m² -
1788344457 25.56° C 83% 1016.4 hPa 0 mm - 0 W/m² -
1788343856 25.56° C 83% 1016.2 hPa 0 mm - 0 W/m² -
1788343252 25.56° C 83% 1016.4 hPa 0 mm - 0 W/m² -
1788342650 25.56° C 81% 1016.5 hPa 0 mm - 0 W/m² -
1788342048 25.56° C 80% 1016.2 hPa 0 mm - 0 W/m² -
1788341442 25.56° C 81% 1016 hPa 0 mm - 0 W/m² -
1788340838 26.11° C 80% 1016.1 hPa 0 mm - 0 W/m² -
1788340235 26.11° C 79% 1016.1 hPa 0 mm - 0 W/m² -
1788339630 26.11° C 78% 1016 hPa 0 mm - 0 W/m² -
1788339025 26.67° C 77% 1016 hPa 0 mm - 0 W/m² -

* Rain latest hour (hover to see other rain measurements)
** Current wind speed in m/s (hover to see current wind gust speed)